Location: Navalespino
(40.5894°N, 4.2660°W)
Time: 07:09:30
(UTC+00:00)

CZ-4C R/B - Pass Details

Date: 18 April 2024
Orbit: 530 x 1463 km, 63.4° (Epoch: 22 May)

Event Time Altitude Azimuth Distance (km) Brightness Sun altitude
Rises 20:29:37 0° 331° (NNW) 3,700 6.6 -16.4°
Reaches altitude 10° 20:32:29 10° 343° (NNW) 2,898 5.7 -16.9°
Maximum altitude 20:38:25 28° 40° (NE) 2,132 4.2 -17.8°
Enters shadow 20:43:05 17° 85° (E) 2,845 4.5 -18.6°
